Location: Bacharowice
(49.9333°N, 19.5833°E)
Time: 03:45:08
(UTC+00:00)

Cosmos 1271 Rocket - Pass Details

Date: 11 May 2021
Orbit: 497 x 545 km, 81.2° (Epoch: 22 June)

Event Time Altitude Azimuth Distance (km) Brightness Sun altitude
Exits shadow 20:18:22 23° 179° (S) 1,174 4.0 -15.3°
Maximum altitude 20:20:44 72° 100° (E) 580 2.7 -15.5°
Drops below altitude 10° 20:24:45 10° 16° (NNE) 1,828 6.0 -15.9°
Sets 20:26:56 0° 14° (NNE) 2,724 7.0 -16.1°
